When you browse on this site, cookies collect data to enhance your experience and personalize the content and advertising you see.
Visit our Privacy Policy to learn more. By continuing to use the site, you agree to this use of cookies and data.
  • In United Kingdom
  • List of Countries
  • For 7 days
  • Water Temperature
  • Satellite Maps
  • Weather Map
  • Weather Widgets
  • user-avatar
    Login

    Hourly Weather Yurkino

    Today, 18 November, Sunday

    Time Temperature Precipitation Wind Pressure Humidity
    00:00 -2°C° 0.2 mm 4 mps 756 mmHg 87%
    01:00 -2°C° 0.3 mm 4 mps 756 mmHg 88%
    02:00 -2°C° 0.3 mm 4 mps 756 mmHg 90%
    03:00 -1°C° 0 mm 3 mps 755 mmHg 91%
    04:00 -1°C° 0.2 mm 3 mps 755 mmHg 91%
    05:00 -1°C° 0.2 mm 3 mps 755 mmHg 91%
    06:00 -1°C° 0.2 mm 3 mps 755 mmHg 91%
    07:00 -1°C° 0 mm 3 mps 755 mmHg 91%
    08:00 -1°C° 0 mm 3 mps 755 mmHg 91%
    09:00 -1°C° 0 mm 3 mps 755 mmHg 91%
    10:00 0°C° 0 mm 3 mps 755 mmHg 90%
    11:00 +1°C° 0 mm 2 mps 756 mmHg 89%
    12:00 +1°C° 0 mm 2 mps 756 mmHg 88%
    13:00 +1°C° 0 mm 2 mps 756 mmHg 90%
    14:00 +1°C° 0 mm 2 mps 756 mmHg 91%
    15:00 +1°C° 0 mm 2 mps 757 mmHg 92%
    16:00 +1°C° 0 mm 2 mps 757 mmHg 93%
    17:00 +1°C° 0 mm 2 mps 757 mmHg 94%
    18:00 -1°C° 0 mm 2 mps 757 mmHg 95%
    19:00 -1°C° 0 mm 2 mps 758 mmHg 96%
    20:00 -1°C° 0 mm 2 mps 758 mmHg 96%
    21:00 -1°C° 0 mm 2 mps 758 mmHg 96%
    22:00 +1°C° 0 mm 1 mps 758 mmHg 96%
    23:00 +1°C° 0 mm 1 mps 759 mmHg 97%

    Tomorrow, 19 November, Monday

    Time Temperature Precipitation Wind Pressure Humidity
    00:00 +1°C° 0 mm 1 mps 759 mmHg 97%
    01:00 +1°C° 0.1 mm 1 mps 759 mmHg 97%
    02:00 +1°C° 0.1 mm 1 mps 759 mmHg 96%
    03:00 +1°C° 0.1 mm 1 mps 760 mmHg 96%
    04:00 +1°C° 0.1 mm 1 mps 760 mmHg 96%
    05:00 -1°C° 0.1 mm 2 mps 760 mmHg 96%
    06:00 -1°C° 0.1 mm 2 mps 760 mmHg 97%
    07:00 -1°C° 0.1 mm 2 mps 760 mmHg 96%
    08:00 +1°C° 0.1 mm 2 mps 761 mmHg 96%
    09:00 +1°C° 0.1 mm 2 mps 761 mmHg 95%
    10:00 +1°C° 0 mm 2 mps 762 mmHg 94%
    11:00 +1°C° 0 mm 2 mps 762 mmHg 92%
    12:00 +2°C° 0 mm 2 mps 762 mmHg 91%
    13:00 0°C° 0 mm 3 mps 763 mmHg 90%
    14:00 0°C° 0 mm 3 mps 763 mmHg 89%
    15:00 0°C° 0 mm 3 mps 763 mmHg 89%
    16:00 0°C° 0 mm 3 mps 763 mmHg 89%
    17:00 -1°C° 0 mm 2 mps 763 mmHg 90%
    18:00 -1°C° 0 mm 2 mps 763 mmHg 90%
    19:00 -1°C° 0.1 mm 2 mps 763 mmHg 90%
    20:00 -1°C° 0.1 mm 3 mps 764 mmHg 90%
    21:00 -1°C° 0.1 mm 3 mps 764 mmHg 90%
    22:00 -1°C° 0 mm 2 mps 764 mmHg 90%
    23:00 -2°C° 0 mm 2 mps 764 mmHg 89%

    Day after tomorrow, 20 November, Tuesday

    Time Temperature Precipitation Wind Pressure Humidity
    00:00 -2°C° 0 mm 2 mps 764 mmHg 89%
    01:00 -2°C° 0 mm 2 mps 764 mmHg 91%
    02:00 -3°C° 0 mm 2 mps 764 mmHg 92%
    03:00 -3°C° 0 mm 2 mps 764 mmHg 94%
    04:00 -3°C° 0 mm 2 mps 763 mmHg 93%
    05:00 -3°C° 0 mm 2 mps 763 mmHg 93%
    06:00 -3°C° 0 mm 2 mps 763 mmHg 92%
    07:00 -3°C° 0 mm 2 mps 763 mmHg 91%
    08:00 -3°C° 0 mm 2 mps 763 mmHg 89%
    09:00 -3°C° 0 mm 2 mps 763 mmHg 87%
    10:00 -3°C° 0 mm 2 mps 762 mmHg 84%
    11:00 -2°C° 0 mm 2 mps 762 mmHg 80%
    12:00 -2°C° 0 mm 2 mps 762 mmHg 77%
    13:00 -2°C° 0 mm 2 mps 761 mmHg 77%
    14:00 -2°C° 0 mm 2 mps 761 mmHg 78%
    15:00 -4°C° 0 mm 3 mps 761 mmHg 79%
    16:00 -4°C° 0 mm 3 mps 760 mmHg 80%
    17:00 -4°C° 0 mm 3 mps 760 mmHg 81%
    18:00 -4°C° 0 mm 3 mps 759 mmHg 82%
    19:00 -5°C° 0 mm 3 mps 759 mmHg 82%
    20:00 -5°C° 0 mm 3 mps 758 mmHg 82%
    21:00 -5°C° 0 mm 3 mps 758 mmHg 81%
    22:00 -5°C° 0 mm 3 mps 758 mmHg 81%
    23:00 -5°C° 0 mm 3 mps 757 mmHg 80%

    21 November, Wednesday

    Time Temperature Precipitation Wind Pressure Humidity
    00:00 -5°C° 0 mm 3 mps 757 mmHg 79%
    01:00 -5°C° 0 mm 3 mps 757 mmHg 79%
    02:00 -4°C° 0 mm 4 mps 757 mmHg 78%
    03:00 -4°C° 0 mm 4 mps 757 mmHg 78%
    04:00 -4°C° 0 mm 4 mps 756 mmHg 80%
    05:00 -4°C° 0 mm 3 mps 756 mmHg 81%
    06:00 -4°C° 0 mm 3 mps 756 mmHg 83%
    07:00 -4°C° 0.1 mm 3 mps 756 mmHg 83%
    08:00 -2°C° 0.1 mm 3 mps 756 mmHg 83%
    09:00 -2°C° 0.1 mm 3 mps 757 mmHg 82%
    10:00 -3°C° 0 mm 4 mps 757 mmHg 80%
    11:00 -2°C° 0 mm 4 mps 757 mmHg 78%
    12:00 -2°C° 0 mm 4 mps 757 mmHg 75%
    13:00 -2°C° 0 mm 4 mps 757 mmHg 75%
    14:00 -1°C° 0 mm 3 mps 757 mmHg 75%
    15:00 -2°C° 0 mm 3 mps 757 mmHg 74%
    16:00 -4°C° 0 mm 3 mps 757 mmHg 76%
    17:00 -4°C° 0 mm 3 mps 757 mmHg 78%
    18:00 -5°C° 0 mm 3 mps 757 mmHg 80%
    19:00 -5°C° 0 mm 3 mps 757 mmHg 81%
    20:00 -6°C° 0 mm 3 mps 757 mmHg 81%
    21:00 -6°C° 0 mm 3 mps 756 mmHg 82%
    22:00 -6°C° 0 mm 3 mps 756 mmHg 83%
    23:00 -6°C° 0 mm 3 mps 756 mmHg 85%

    22 November, Thursday

    Time Temperature Precipitation Wind Pressure Humidity
    00:00 -6°C° 0 mm 3 mps 755 mmHg 86%
    01:00 -6°C° 0 mm 3 mps 754 mmHg 86%
    02:00 -6°C° 0 mm 3 mps 754 mmHg 86%
    03:00 -7°C° 0 mm 4 mps 753 mmHg 86%
    04:00 -7°C° 0 mm 4 mps 752 mmHg 85%
    05:00 -6°C° 0 mm 5 mps 751 mmHg 84%
    06:00 -6°C° 0 mm 5 mps 751 mmHg 83%
    07:00 -6°C° 0.1 mm 6 mps 750 mmHg 81%
    08:00 -6°C° 0.1 mm 6 mps 749 mmHg 80%
    09:00 -5°C° 0.1 mm 6 mps 749 mmHg 78%
    10:00 -4°C° 0.1 mm 6 mps 749 mmHg 76%
    11:00 -4°C° 0.1 mm 6 mps 748 mmHg 75%
    12:00 -3°C° 0.1 mm 7 mps 748 mmHg 73%
    13:00 -4°C° 0.1 mm 7 mps 749 mmHg 67%
    14:00 -5°C° 0.1 mm 6 mps 749 mmHg 60%
    15:00 -5°C° 0.1 mm 6 mps 750 mmHg 53%
    16:00 -6°C° 0 mm 6 mps 750 mmHg 55%
    17:00 -7°C° 0 mm 5 mps 751 mmHg 56%
    18:00 -8°C° 0 mm 5 mps 752 mmHg 58%
    19:00 -8°C° 0 mm 4 mps 752 mmHg 60%
    20:00 -8°C° 0 mm 4 mps 753 mmHg 63%
    21:00 -8°C° 0 mm 4 mps 753 mmHg 65%
    22:00 -8°C° 0 mm 4 mps 754 mmHg 68%
    23:00 -8°C° 0 mm 4 mps 754 mmHg 72%

    23 November, Friday

    Time Temperature Precipitation Wind Pressure Humidity
    00:00 -8°C° 0 mm 4 mps 754 mmHg 75%
    01:00 -8°C° 0 mm 4 mps 755 mmHg 77%
    02:00 -8°C° 0 mm 4 mps 755 mmHg 78%
    03:00 -9°C° 0 mm 4 mps 755 mmHg 80%
    04:00 -9°C° 0 mm 4 mps 756 mmHg 81%
    05:00 -9°C° 0 mm 4 mps 756 mmHg 83%
    06:00 -9°C° 0 mm 4 mps 756 mmHg 84%
    07:00 -9°C° 0 mm 4 mps 757 mmHg 85%
    08:00 -9°C° 0 mm 4 mps 757 mmHg 86%
    09:00 -9°C° 0 mm 4 mps 757 mmHg 86%
    10:00 -8°C° 0 mm 4 mps 757 mmHg 82%
    11:00 -7°C° 0 mm 4 mps 757 mmHg 77%
    12:00 -5°C° 0 mm 4 mps 757 mmHg 73%
    13:00 -5°C° 0 mm 4 mps 757 mmHg 73%
    14:00 -5°C° 0 mm 4 mps 757 mmHg 74%
    15:00 -5°C° 0 mm 4 mps 757 mmHg 75%
    16:00 -5°C° 0 mm 4 mps 756 mmHg 78%
    17:00 -5°C° 0 mm 4 mps 756 mmHg 82%
    18:00 -4°C° 0 mm 4 mps 756 mmHg 86%
    19:00 -5°C° 0 mm 5 mps 755 mmHg 85%
    20:00 -5°C° 0 mm 5 mps 754 mmHg 85%
    21:00 -5°C° 0 mm 5 mps 754 mmHg 84%
    22:00 -5°C° 0.1 mm 5 mps 753 mmHg 83%
    23:00 -4°C° 0.1 mm 6 mps 753 mmHg 83%
    Show more